Location: Strawberry
(45.6646°N, 111.9596°W)
Time: 20:26:37
(UTC+00:00)

Explorer 11/Cluster Stage 4 - Pass Details

Date: 13 October 2022
Orbit: 466 x 1248 km, 28.8° (Epoch: 28 November)

Event Time Altitude Azimuth Distance (km) Brightness Sun altitude
Rises 18:40:01 0° 251° (WSW) 4,029 10.3 35.8°
Reaches altitude 10° 18:44:08 10° 231° (SW) 3,152 10.1 35.9°
Maximum altitude 18:48:30 16° 198° (SSW) 2,781 10.6 36.1°
Drops below altitude 10° 18:52:56 10° 165° (SSE) 3,205 11.0 36.1°
Sets 18:57:11 0° 145° (SE) 4,131 11.0 36.2°
